Wind_Speed
4 4 4 4 4 6 7 2 1 2 2 3 4 4 8 9 9 8 10 5 2 3 5 5 8 14 13 11 13 13 9 6 2 3 3 5 17 27 27 31 35 34 32 29 29 29 27 26 24 23 22 21 21 20 20 19 19 19 18 18 19 20 20 20 20 19 18 16 16 16 15 15 15 15 14 13 12 12 13 13 13 13 13 13 13 13 14 14 14 13 13 12 12 11 11 10 10
2 2 6 7 7 3 2 2 0 2 2 3 5 6 9 7 7 5 3 4 3 1 5 8 11 15 18 15 13 14 11 9 9 7 7 18 23 24 31 34 36 35 32 29 29 29 28 26 24 24 22 22 21 20 19 19 20 18 18 18 18 20 20 20 20 19 18 17 16 16 15 15 14 14 13 12 12 12 13 13 13 12 12 12 12 12 13 13 12 12 12 12 11 10 11 10 9
3 3 6 7 6 3 2 1 1 2 2 4 6 7 7 7 4 1 4 4 3 4 5 9 12 7 12 15 12 12 8 7 13 10 8 20 18 17 31 35 36 36 32 29 29 30 28 26 25 24 23 22 21 20 19 20 20 19 18 18 18 19 20 21 20 19 18 17 16 16 16 15 14 13 13 12 12 12 11 12 12 12 11 10 10 11 11 11 11 11 11 11 10 10 9 9 9
5 4 5 4 1 2 1 0 3 2 2 4 6 6 5 5 4 6 3 3 3 6 5 7 8 5 11 15 9 9 6 6 12 11 7 14 19 23 31 34 36 35 32 29 30 31 28 27 25 24 23 22 21 20 20 20 20 19 18 19 19 19 20 21 20 18 17 17 16 16 15 15 14 13 13 12 12 11 11 11 11 11 11 10 10 11 11 10 10 10 10 10 9 9 8 8 9
5 4 6 4 0 1 0 1 2 3 4 4 6 5 4 4 3 5 4 4 4 6 5 5 5 4 11 9 4 4 2 5 11 13 11 16 26 30 31 34 36 33 30 29 30 31 29 28 26 25 24 23 22 20 20 21 21 19 19 19 19 20 21 20 19 18 18 17 16 16 15 15 14 13 13 12 11 10 9 9 9 9 10 10 10 11 12 10 10 10 10 9 9 7 6 7 8
4 4 6 5 2 2 0 2 3 4 6 6 7 7 4 4 4 3 3 4 6 6 6 7 8 8 8 6 6 5 3 4 10 14 18 21 28 30 31 33 34 32 29 29 31 31 29 28 26 25 24 23 22 21 21 21 21 20 19 19 20 21 21 20 19 17 17 17 16 16 15 15 14 13 12 11 10 9 9 8 8 8 9 9 10 11 11 10 10 10 9 8 7 6 6 6 6
3 4 3 2 2 2 1 3 4 5 7 9 10 8 4 3 1 3 3 5 7 4 7 9 12 11 6 4 5 8 11 10 10 15 26 28 28 29 30 32 32 31 28 30 31 30 29 28 27 26 24 23 22 22 22 21 22 21 20 19 20 21 20 19 18 17 17 17 17 16 15 14 13 12 11 10 10 9 9 9 9 9 9 9 11 11 10 10 10 10 8 6 5 6 7 6 6
6 3 1 1 1 1 1 4 5 5 7 11 12 9 7 6 5 2 3 4 3 1 6 11 13 11 5 7 5 6 15 20 20 23 32 30 28 29 29 30 30 30 29 31 31 30 29 27 27 25 24 23 22 22 21 22 21 21 21 20 21 20 19 18 17 17 17 17 17 16 15 13 12 11 10 9 9 9 9 9 9 9 10 11 12 11 9 9 9 8 6 4 4 6 7 7 8
6 4 1 0 1 2 3 4 6 7 9 13 14 12 10 5 1 3 3 1 1 2 4 10 11 10 7 10 8 4 13 23 29 28 29 27 26 26 26 27 28 29 29 30 31 30 29 28 26 25 24 23 22 22 22 22 21 22 21 21 20 19 18 17 17 17 17 17 16 15 14 12 11 11 10 9 8 8 8 8 9 9 10 11 12 10 8 8 7 6 4 3 5 7 8 9 10
3 4 1 1 1 3 4 5 6 7 10 12 14 15 9 3 2 3 3 2 1 5 6 12 11 11 10 9 6 3 9 20 28 25 25 27 19 12 18 25 26 28 29 31 31 30 29 27 26 24 23 23 22 22 23 23 21 21 21 20 19 18 17 17 17 16 16 15 14 13 12 11 10 10 9 8 8 7 8 8 9 9 10 12 11 9 9 8 5 4 3 4 6 7 9 10 9
1 3 2 1 2 3 4 5 7 7 10 9 12 16 9 4 3 3 5 3 3 5 4 12 10 11 10 7 3 5 15 21 24 23 22 25 18 10 16 21 23 28 30 31 30 29 28 26 25 24 23 22 22 23 23 23 22 22 20 19 18 17 17 17 16 15 15 14 13 12 10 10 9 9 8 7 7 7 7 8 8 9 10 11 11 9 8 7 5 4 4 6 7 7 9 8 8
2 3 1 2 3 4 5 6 7 8 9 6 8 10 4 5 5 3 3 2 1 3 2 7 9 8 8 5 2 5 16 20 22 23 20 20 20 20 20 16 19 26 29 30 29 27 26 25 24 22 22 22 22 23 23 22 22 21 20 19 18 17 17 16 15 14 13 12 12 10 9 9 8 8 7 7 6 5 6 7 8 9 10 10 10 9 8 6 4 5 6 7 7 7 8 6 6
3 3 1 3 4 4 6 6 8 9 7 4 4 6 3 6 6 3 4 4 5 6 3 8 10 7 6 3 2 3 9 18 23 21 18 18 17 18 18 12 13 21 24 26 27 26 25 24 23 21 21 21 21 21 21 22 21 20 19 18 18 17 16 15 14 13 13 12 11 10 9 8 8 7 7 6 5 5 5 6 7 8 9 8 8 7 6 5 4 5 7 7 7 7 7 5 5
4 3 2 3 4 4 5 5 7 7 5 4 1 4 4 3 6 6 7 6 9 5 8 11 10 7 4 2 3 2 5 16 20 19 18 18 15 10 10 10 15 21 21 21 22 22 24 23 22 21 20 20 20 20 20 20 20 20 19 18 18 17 16 15 14 13 12 11 10 10 9 9 7 7 6 6 5 5 4 5 6 6 7 6 6 6 5 5 4 5 6 7 6 6 5 4 4
5 2 2 3 4 5 5 5 7 6 5 4 3 1 2 3 4 6 7 3 5 4 8 7 6 5 5 5 4 5 9 15 17 20 20 18 16 13 14 14 21 24 21 20 18 17 21 21 21 20 20 20 20 20 20 19 19 19 19 18 18 16 15 14 13 12 11 10 9 9 9 9 8 6 6 6 6 5 4 4 4 5 6 5 5 5 5 4 4 5 5 6 6 4 3 3 2
4 2 2 2 4 4 4 5 7 6 5 4 3 4 3 4 6 5 4 4 3 3 6 2 3 5 10 8 7 14 18 20 19 22 22 19 19 18 21 22 24 26 24 22 17 16 19 20 21 21 20 20 20 20 20 19 19 19 19 18 17 16 15 13 12 11 10 9 9 9 9 8 8 7 6 6 6 6 5 4 4 4 4 5 5 4 4 4 5 5 5 5 4 3 1 0 1
3 3 3 3 4 5 5 5 6 5 3 4 6 7 4 4 6 4 3 5 1 3 8 5 3 4 10 9 18 29 26 24 23 22 23 21 20 21 23 24 28 29 26 23 17 14 16 19 20 19 19 19 19 19 19 19 19 19 19 18 17 16 15 15 14 13 11 10 9 8 7 7 6 6 6 6 6 6 6 5 5 5 4 4 4 4 4 4 5 4 5 4 3 2 2 3 3
3 3 4 5 5 5 7 7 8 5 2 3 3 5 4 4 5 4 3 3 1 2 8 8 9 8 10 19 31 34 28 27 26 24 22 19 19 18 18 20 26 28 26 25 20 16 15 18 19 18 19 18 18 18 18 18 18 19 19 18 17 16 16 16 15 14 13 11 10 9 7 7 6 6 6 6 6 7 7 7 7 6 5 4 4 4 4 4 4 3 3 3 3 3 3 3 3
4 3 4 5 5 6 9 11 12 7 5 4 3 6 4 3 4 3 3 4 5 4 7 8 12 12 15 23 29 30 29 28 27 25 20 17 17 16 16 15 18 22 25 25 23 22 19 19 20 20 20 19 19 19 18 18 18 19 19 18 17 16 16 16 15 15 14 12 11 11 9 8 7 7 8 7 6 8 9 8 8 7 6 5 4 3 3 3 2 2 1 1 2 2 3 3 3
5 4 4 4 5 8 11 12 12 8 5 5 6 8 5 4 3 1 2 6 7 2 5 7 10 13 15 17 20 25 26 25 25 24 18 17 18 18 19 16 14 17 22 25 24 23 23 23 22 22 22 21 21 20 19 19 19 19 19 19 18 17 16 14 14 14 14 13 12 12 11 10 9 9 9 9 8 9 10 8 8 8 7 6 4 3 3 3 3 2 2 3 3 3 3 3 2
4 5 6 6 6 9 12 11 9 6 6 6 6 8 5 5 5 0 2 3 5 3 7 11 12 14 16 14 14 17 19 19 20 20 17 15 16 20 21 19 17 18 20 23 23 21 21 24 24 23 23 22 21 21 21 21 21 21 20 19 18 16 14 13 12 12 13 13 12 12 12 11 10 10 10 10 10 10 10 9 8 8 7 5 5 4 4 4 3 4 4 3 4 4 3 2 2
4 5 8 9 9 9 11 11 6 3 5 5 4 5 4 4 6 1 3 2 4 2 8 14 14 14 14 14 11 12 15 15 15 16 15 13 16 21 21 20 18 18 18 18 22 19 15 20 24 23 23 22 21 21 21 22 22 22 20 19 17 15 14 13 13 12 12 12 11 12 12 12 12 11 11 11 10 9 8 9 8 7 6 5 4 4 5 4 3 4 4 4 5 4 2 4 5
5 6 7 9 10 10 9 10 8 3 3 3 2 3 4 4 5 2 1 3 1 7 12 16 14 12 12 12 10 9 12 13 14 15 15 15 17 20 22 22 20 19 17 16 21 17 11 17 22 21 23 22 21 20 20 22 22 20 19 18 16 15 15 15 14 14 13 12 11 11 11 11 12 12 12 11 8 7 6 7 6 6 7 7 7 6 7 6 6 5 4 4 4 3 5 7 10
7 6 7 10 10 10 9 9 9 5 4 4 3 4 6 6 6 2 3 3 8 15 16 17 15 13 12 11 9 8 9 10 12 16 19 19 20 24 24 23 22 22 20 18 23 20 14 18 23 23 23 23 22 20 20 21 21 19 18 17 16 15 15 14 14 14 12 12 10 9 9 9 9 9 10 9 6 5 5 6 6 8 10 11 12 11 11 11 11 10 8 8 6 6 7 7 9
9 9 8 8 7 9 9 8 10 7 3 3 5 5 6 8 6 3 6 3 15 16 16 18 15 13 12 11 10 9 8 8 11 16 18 18 22 26 24 23 24 23 24 24 27 24 16 19 24 23 23 23 22 20 20 21 19 18 17 16 14 13 13 12 12 13 12 11 9 8 9 9 7 7 8 9 7 6 6 6 7 9 10 12 11 12 12 13 13 12 11 10 9 8 7 6 6
8 8 5 5 6 8 10 10 9 6 3 2 4 5 6 9 5 4 6 6 16 15 16 17 15 13 11 10 10 9 9 8 9 13 15 17 22 24 22 23 23 22 26 27 29 26 18 20 23 22 22 22 21 21 21 20 19 17 16 14 12 10 11 11 11 11 10 11 9 7 9 10 9 9 9 9 8 7 7 7 8 8 9 10 10 12 13 13 13 11 10 10 10 8 7 6 6
6 4 2 4 5 7 9 9 6 4 5 6 6 6 7 8 4 5 5 11 17 15 15 14 13 12 10 9 8 8 8 8 9 12 13 13 14 15 19 25 24 23 27 28 30 29 22 23 23 22 22 20 18 20 20 19 18 16 14 12 11 11 12 11 10 10 10 10 10 9 9 10 10 10 8 8 8 7 7 8 8 8 9 10 11 12 13 13 11 10 9 9 10 8 6 6 6
8 6 3 6 7 7 8 8 7 4 5 6 7 6 9 8 6 7 4 14 16 15 14 12 12 10 10 11 8 7 6 8 12 11 10 9 7 5 4 16 26 27 29 31 31 30 27 27 25 23 22 18 16 17 17 17 16 15 13 11 10 12 12 10 9 9 10 10 10 9 9 8 8 8 8 8 7 6 7 8 8 9 10 11 11 11 12 13 10 9 9 10 10 7 4 5 6
7 8 4 6 7 8 10 7 8 6 5 5 5 4 8 7 7 10 9 16 15 15 13 11 11 9 10 10 7 6 5 9 11 9 9 11 12 8 4 8 21 28 26 28 30 29 29 28 26 23 21 18 16 16 15 15 15 14 13 11 10 11 9 8 8 9 9 8 7 7 7 7 6 7 7 7 6 5 6 7 9 11 11 10 10 11 11 12 10 8 8 9 9 5 2 3 5
5 6 3 5 5 8 10 8 10 9 8 7 5 3 7 8 11 8 11 18 17 14 11 10 9 9 9 8 7 6 6 8 8 9 12 14 17 19 10 12 14 22 21 24 30 30 28 26 24 22 19 17 17 16 15 14 14 14 13 11 10 9 8 7 8 9 9 7 5 5 6 7 7 7 7 7 6 5 6 7 9 11 10 8 9 10 10 10 9 8 7 8 8 5 2 2 5
4 4 3 3 3 8 8 8 12 11 10 8 8 3 7 9 11 6 14 18 17 14 11 10 9 8 8 7 7 5 5 8 9 13 15 17 17 20 20 11 16 17 25 28 33 31 27 25 23 21 18 16 15 14 13 13 13 14 14 12 11 9 8 8 9 10 10 7 4 3 4 6 7 7 6 6 6 6 7 7 8 9 8 7 7 7 8 7 6 6 7 9 8 6 5 3 4
3 3 5 4 5 8 9 10 14 12 7 9 10 3 6 8 8 7 13 16 17 14 10 10 9 9 9 7 8 6 5 8 11 15 16 17 15 16 20 11 16 20 32 31 33 30 27 25 24 23 20 18 17 16 15 14 14 15 14 13 12 10 8 9 10 10 9 7 5 2 2 3 4 5 6 6 6 6 6 6 7 7 7 7 7 5 6 5 3 4 7 8 7 7 6 4 3
3 5 5 5 6 8 8 8 12 12 5 10 9 4 3 6 2 8 10 15 17 13 12 12 11 10 9 7 7 7 7 7 7 10 14 15 12 14 16 11 14 24 32 31 32 29 29 27 26 25 22 22 22 19 18 17 17 17 16 14 12 9 7 9 10 10 9 8 7 6 6 5 4 3 4 4 4 4 4 5 6 8 8 7 6 5 5 4 3 4 6 7 7 7 8 7 5
3 4 5 5 6 5 4 2 7 11 6 8 8 6 3 5 2 8 9 15 15 12 13 12 11 10 8 7 7 8 8 7 7 8 15 19 15 16 14 12 13 26 29 29 31 29 30 28 26 25 21 21 21 18 16 16 17 16 16 13 12 11 8 9 10 11 11 10 8 8 7 7 7 6 5 4 3 2 1 1 3 6 7 7 5 4 4 4 4 5 5 6 7 7 7 7 7
4 4 3 5 6 5 6 5 6 9 8 7 6 6 6 6 5 7 9 14 14 12 11 10 9 10 8 7 7 7 8 7 7 10 16 23 24 23 18 15 15 28 27 27 28 28 29 26 25 24 21 21 20 20 18 16 16 16 15 13 13 12 12 13 13 11 12 10 10 9 8 7 7 6 5 6 5 4 4 3 2 3 1 3 3 4 4 5 4 4 5 5 5 6 7 8 7
4 6 3 5 6 6 4 7 5 6 7 5 5 5 6 6 7 7 7 11 15 12 10 10 8 8 8 8 7 7 8 7 8 12 14 20 28 29 23 21 21 28 26 27 27 28 29 27 27 25 23 24 22 21 19 18 17 16 16 15 14 13 14 16 15 14 13 12 13 11 8 8 8 8 7 6 5 5 6 6 6 7 5 3 2 1 2 5 5 3 4 4 3 6 8 9 8
4 6 5 7 7 7 2 6 2 5 6 2 2 4 5 4 6 5 5 9 15 15 12 11 10 9 9 9 9 9 8 7 11 15 16 19 26 25 23 24 26 27 25 26 26 27 29 28 27 26 25 24 24 23 21 20 18 17 17 18 17 16 16 18 16 15 14 12 11 9 8 8 6 6 8 6 5 5 6 6 7 7 6 6 5 4 3 1 3 2 2 3 4 6 9 8 8
5 5 5 7 6 6 5 6 4 7 6 2 4 4 5 5 5 3 3 8 11 15 14 13 13 11 10 11 11 10 8 7 10 12 15 19 21 22 24 26 28 27 26 26 25 26 27 26 27 27 26 25 24 24 22 21 19 19 18 18 19 17 15 16 14 12 10 9 9 9 10 9 7 7 8 7 6 6 6 7 7 7 6 6 6 4 4 3 1 2 2 4 5 5 6 4 5
5 4 5 6 5 4 6 4 5 6 4 3 6 6 6 7 8 7 1 7 9 14 15 14 14 12 10 11 11 10 9 9 10 10 12 18 22 24 27 26 27 27 25 25 26 25 25 25 26 27 28 26 24 23 22 22 20 19 18 18 20 18 15 13 12 13 12 12 12 12 11 9 9 8 9 10 8 8 9 10 9 9 7 6 8 8 6 6 2 2 4 5 4 4 3 1 2
2 2 2 5 6 3 3 5 4 4 3 2 5 6 6 6 8 8 4 3 7 12 15 14 13 13 13 13 13 12 12 12 11 10 9 14 19 23 25 25 26 26 23 24 26 25 24 24 26 27 27 24 22 22 22 22 20 19 20 21 21 21 19 16 15 16 15 14 14 13 12 10 11 11 11 12 11 10 12 11 10 11 11 8 7 9 10 10 8 5 5 4 6 8 5 2 2
4 3 3 5 8 5 1 2 3 5 4 2 4 6 6 5 5 6 6 2 7 9 11 11 10 12 13 12 12 11 12 13 12 10 8 9 13 18 23 24 25 25 23 23 26 26 24 24 25 25 24 23 23 23 24 23 23 24 25 25 23 22 20 19 18 17 15 15 14 13 12 11 12 13 11 10 10 11 12 11 9 9 12 12 11 12 12 12 11 9 7 6 7 9 7 5 3
4 4 5 5 7 9 4 2 2 5 5 3 4 3 5 5 4 7 6 1 5 6 8 9 7 10 11 11 10 8 9 10 10 11 9 8 11 16 21 22 23 25 22 21 24 25 24 23 23 23 22 23 24 24 24 25 25 27 27 25 24 23 21 20 19 19 18 17 15 13 12 10 10 10 9 8 8 9 13 13 10 9 11 12 13 13 13 12 13 12 9 8 8 7 8 7 6
3 4 3 2 5 7 6 4 3 3 2 4 5 5 3 6 6 7 6 3 6 5 7 7 6 10 11 9 9 9 9 9 9 10 9 9 12 14 17 20 22 24 23 22 24 24 24 24 22 22 23 24 25 25 24 24 25 25 24 23 24 24 23 20 20 21 20 17 16 15 12 10 9 9 9 8 7 9 12 11 9 11 12 10 10 10 10 10 12 12 11 11 10 7 8 8 7
3 5 3 4 5 6 7 5 3 2 3 3 2 5 2 4 6 7 7 5 5 3 6 6 7 12 13 11 11 12 12 11 11 11 10 10 12 13 17 20 22 24 23 23 25 24 26 26 23 22 23 24 25 25 25 25 25 24 23 23 23 24 24 23 22 21 19 18 18 16 14 14 13 11 10 10 10 11 11 11 10 11 11 9 9 9 8 9 10 11 11 11 12 11 9 10 9
4 5 4 1 2 4 7 5 3 2 1 4 4 2 2 4 6 7 8 6 3 5 6 4 4 10 14 13 13 12 10 10 10 11 10 9 13 16 19 20 22 24 24 24 26 25 26 27 25 23 24 25 26 26 26 25 25 24 24 25 25 24 24 24 23 21 19 19 20 18 16 16 14 13 12 12 12 11 11 14 15 13 12 12 11 11 11 11 12 12 11 11 13 14 12 11 11
3 1 1 1 2 3 5 4 4 3 2 4 6 2 2 3 6 4 4 4 3 4 4 3 5 7 12 10 8 8 7 8 9 11 11 11 16 19 20 20 21 23 23 23 24 25 27 28 26 26 26 26 27 26 26 26 25 25 25 26 27 27 25 24 23 22 20 20 20 18 16 16 15 14 14 13 12 11 11 13 14 13 12 12 12 13 13 13 13 13 13 12 12 13 12 11 12
3 4 2 4 3 3 3 3 2 2 2 5 5 3 2 3 5 2 1 2 3 3 5 6 8 10 11 7 8 9 7 7 8 8 8 10 15 18 19 20 21 23 23 24 23 22 26 29 28 28 29 28 28 27 28 28 27 26 25 27 29 28 26 24 24 23 21 21 20 18 17 17 16 15 14 13 11 11 11 11 12 13 12 11 10 11 11 11 12 12 12 11 11 12 13 12 13
3 4 2 3 4 3 2 3 2 1 4 5 3 5 1 2 4 4 4 2 6 7 7 8 9 10 9 6 7 7 6 8 8 8 7 8 10 13 17 18 19 22 21 22 21 17 18 26 29 29 29 29 29 28 28 28 28 26 25 27 28 26 26 26 25 25 23 21 21 19 18 18 17 15 13 12 12 12 12 10 11 12 11 11 11 10 9 9 10 10 11 11 11 11 12 12 13
3 3 2 1 2 3 3 3 1 1 4 4 3 6 2 4 4 4 5 2 6 8 7 8 8 8 10 12 11 9 8 9 9 8 7 7 7 8 12 15 17 18 17 18 20 18 14 19 24 26 29 30 29 29 28 28 28 26 25 27 26 26 26 24 24 25 23 22 22 22 20 18 17 16 14 13 12 13 13 10 9 10 10 10 11 10 8 8 9 9 11 12 11 11 10 11 12
3 4 3 3 2 2 1 3 1 1 4 4 2 4 3 3 3 5 7 2 5 9 8 7 8 8 11 13 13 11 9 9 8 7 6 5 5 5 6 13 17 16 17 20 22 20 16 16 17 18 23 27 27 27 26 26 27 24 24 25 25 26 26 23 22 24 22 21 22 22 19 17 17 15 14 13 12 13 13 9 7 9 9 10 11 11 9 8 8 8 9 10 9 9 9 10 11
3 4 4 5 4 3 3 2 2 2 4 4 4 3 1 2 3 8 6 4 7 9 8 7 9 11 12 12 12 11 10 8 7 7 7 6 6 7 7 4 16 21 23 25 22 17 16 15 11 8 7 14 18 21 22 24 26 23 22 25 25 25 25 22 20 21 20 20 20 20 18 17 16 15 14 12 12 12 12 10 8 8 9 9 10 11 10 9 7 6 7 8 9 9 9 10 10
4 1 2 3 4 5 3 3 5 4 1 2 1 1 3 2 3 9 4 6 8 7 8 8 9 11 12 11 10 10 8 7 7 6 6 6 7 10 13 10 15 25 24 21 18 17 17 16 10 1 5 14 17 19 19 20 24 22 20 23 24 23 23 22 20 19 19 18 18 18 17 17 15 14 14 12 11 12 11 10 8 7 7 7 9 11 11 8 6 4 5 8 9 9 8 9 10
2 2 0 4 4 6 4 2 3 2 1 2 3 2 2 1 1 7 3 4 7 7 8 10 10 11 11 9 8 8 8 7 6 6 6 6 8 10 14 16 14 18 20 17 17 19 18 17 13 8 13 20 22 19 17 16 18 19 20 21 23 22 21 21 20 19 18 16 17 16 15 15 15 14 14 12 11 11 11 10 8 7 7 6 8 10 9 7 6 4 5 7 8 7 6 6 7
2 2 4 3 2 4 4 1 1 1 1 2 3 3 0 1 1 5 4 2 6 7 9 11 11 11 10 8 8 8 8 8 7 7 7 7 9 11 15 18 17 15 14 16 18 18 15 19 23 17 17 20 20 16 15 15 13 16 20 20 21 21 19 19 19 19 16 14 16 17 14 13 14 14 14 13 12 11 11 10 9 8 7 6 7 8 7 6 6 6 5 6 7 6 6 5 5
3 4 5 2 2 1 1 1 2 1 1 2 3 2 1 0 3 5 5 2 3 6 9 11 11 11 10 8 9 9 8 7 6 7 6 6 8 12 15 18 19 20 17 13 11 10 12 17 26 25 22 22 19 15 16 14 9 12 18 19 18 18 17 16 15 17 17 14 14 16 15 13 13 13 14 13 12 11 11 11 10 9 9 8 7 7 7 7 7 7 6 6 7 6 5 6 6
1 3 3 0 3 3 1 1 3 3 2 2 3 2 1 3 4 4 2 6 8 7 6 9 10 10 9 8 8 8 7 6 6 6 5 5 8 12 15 17 18 20 20 19 17 12 11 15 17 21 24 24 20 17 18 15 9 9 15 17 16 16 17 17 14 15 18 17 14 14 14 13 12 12 12 13 12 11 11 11 11 11 10 10 9 8 9 8 8 8 8 8 8 7 6 7 7
2 3 2 1 1 2 2 1 1 2 2 2 1 2 4 4 2 4 2 8 9 8 6 6 9 10 9 8 8 7 7 7 5 5 4 4 8 12 14 15 16 17 18 19 21 20 14 11 13 18 23 24 19 18 20 17 11 11 14 16 16 15 15 16 14 13 17 19 16 14 12 12 12 13 12 12 12 12 11 11 12 12 12 11 11 10 10 10 10 9 9 9 9 8 8 9 8
2 0 0 2 2 3 3 3 3 2 1 1 2 1 5 5 3 4 2 6 9 8 5 5 8 11 10 8 8 7 7 7 6 5 4 4 8 11 12 14 15 15 16 17 19 21 19 14 12 16 20 20 17 17 18 16 14 15 14 12 14 14 13 13 12 11 13 16 15 14 12 10 11 12 13 13 13 12 12 12 12 13 13 13 14 13 12 12 12 11 10 10 11 10 10 11 11
Wind_Direction
261 273 292 302 299 317 306 234 119 276 173 259 250 247 250 233 241 273 292 310 56 334 17 45 51 76 87 90 93 75 51 38 55 100 128 129 117 132 141 142 145 148 150 151 150 148 147 148 147 144 143 144 144 144 142 142 141 140 141 142 143 143 143 141 138 135 133 131 131 131 129 129 130 129 128 125 119 115 115 114 110 108 106 104 104 101 98 96 95 94 92 92 92 90 90 89 89
227 278 304 296 283 293 287 173 142 255 175 273 258 235 251 257 263 278 340 27 61 6 32 50 54 77 93 95 92 75 59 47 68 82 104 118 111 125 140 146 149 149 151 152 150 147 147 148 147 145 144 144 145 144 141 141 140 139 139 139 141 144 143 141 139 137 134 133 135 135 133 130 129 129 129 128 125 122 118 117 113 110 109 107 104 101 100 96 96 96 97 98 96 95 97 97 92
223 268 298 291 265 230 290 314 206 237 187 237 256 244 250 270 258 147 82 72 43 34 39 58 52 45 79 78 68 73 89 75 84 93 113 123 115 130 143 148 150 150 152 151 149 148 147 148 147 145 144 145 145 142 140 140 139 139 139 137 138 141 141 141 140 137 135 135 138 139 136 132 128 126 126 127 128 127 124 123 119 116 112 108 106 105 104 100 102 101 103 101 97 99 101 98 93
258 262 282 298 274 195 321 263 196 218 224 237 259 254 254 256 153 121 93 72 50 44 33 65 58 8 67 77 77 79 94 102 111 117 120 130 134 146 148 149 149 149 150 151 151 148 147 147 147 145 144 145 144 142 139 138 138 139 139 137 137 139 140 141 140 137 135 137 140 140 135 131 129 128 129 131 134 135 133 132 130 129 126 124 121 115 110 106 106 109 112 104 99 103 98 96 100
274 256 258 271 55 183 170 227 213 199 223 241 260 277 319 318 91 111 124 107 91 74 51 84 100 50 69 69 74 85 61 106 117 116 114 127 139 148 149 148 146 147 150 152 151 149 148 148 147 146 144 145 144 142 139 137 137 138 137 137 138 139 141 141 140 137 136 137 138 137 133 131 132 134 136 136 138 137 133 133 135 140 140 138 135 126 118 112 111 117 120 108 104 101 93 103 106
290 284 259 239 247 298 78 263 261 242 239 234 256 281 323 341 356 24 106 88 58 78 71 76 103 92 80 60 55 60 22 106 110 110 122 131 141 146 146 146 145 147 151 153 152 149 147 147 147 145 144 145 143 140 137 137 138 137 136 137 138 139 141 141 138 137 136 135 134 134 133 133 135 134 134 131 129 126 122 122 124 134 140 141 139 129 119 118 131 135 127 113 108 96 88 99 99
281 303 277 200 269 289 142 255 257 261 258 242 252 271 262 214 201 18 49 50 29 50 82 91 112 101 91 94 71 41 44 91 109 118 131 135 140 142 144 146 145 148 153 154 152 149 147 148 147 145 145 143 139 135 134 136 138 136 134 136 138 140 142 140 138 137 135 133 133 135 136 135 133 129 126 124 121 117 114 113 114 120 129 135 132 123 122 134 149 152 135 115 105 94 88 84 81
255 266 286 116 289 258 187 254 252 252 262 262 262 265 256 215 173 115 74 70 44 20 103 118 116 95 84 93 90 35 56 89 104 120 132 135 141 143 146 147 146 149 154 154 152 149 147 148 147 145 143 139 135 133 133 134 137 136 134 136 138 140 140 139 137 135 134 134 136 137 136 134 132 129 126 123 118 114 110 110 110 114 122 130 129 121 130 147 155 159 139 114 102 90 86 82 84
238 223 280 201 223 253 245 250 249 249 253 263 268 265 260 234 152 97 106 99 162 275 115 124 108 99 104 88 94 57 61 93 108 121 132 135 143 146 147 147 147 148 153 153 151 148 146 148 146 144 142 138 135 133 132 131 134 134 133 136 137 139 139 138 136 134 136 137 139 138 137 136 135 132 129 125 121 119 114 111 109 112 122 130 129 119 123 138 151 159 136 116 111 94 94 97 96
214 203 218 254 225 268 264 257 251 251 248 252 262 263 258 189 130 70 75 55 11 338 66 88 84 107 115 97 100 73 81 108 116 124 136 140 145 149 142 143 149 150 153 152 150 146 144 146 145 143 141 138 135 131 131 131 132 133 133 135 135 137 136 135 135 135 139 140 141 140 141 139 137 136 132 129 125 123 119 113 110 113 124 130 128 121 120 125 137 148 125 117 114 104 111 112 101
244 221 179 255 274 265 253 260 258 259 258 257 262 258 248 155 126 74 59 40 0 325 82 90 92 115 112 103 94 107 117 123 125 129 140 146 150 146 133 140 154 155 152 148 145 142 140 142 143 143 141 137 135 131 131 133 135 134 132 134 134 135 133 134 135 137 141 142 144 142 143 143 143 144 137 133 126 123 120 115 112 114 126 131 127 125 124 124 124 125 113 115 117 117 125 118 98
249 262 146 225 232 239 246 259 265 270 272 275 277 270 239 113 90 95 80 28 29 302 283 112 131 130 109 107 100 125 121 128 137 138 143 148 150 147 140 140 153 152 147 143 139 138 137 139 141 141 140 137 134 133 133 134 136 134 132 134 134 134 133 136 138 141 144 147 149 147 149 152 154 152 146 142 132 124 124 121 116 116 127 133 131 130 128 125 119 120 118 120 123 126 131 119 94
217 254 159 239 228 233 252 259 268 275 280 280 300 332 5 100 89 90 78 38 17 3 28 113 135 112 90 100 102 131 124 136 142 141 139 135 136 139 138 129 131 133 129 133 134 136 139 139 140 137 137 136 134 134 133 135 136 134 134 135 136 136 137 142 147 150 153 155 156 157 158 162 164 161 157 147 137 132 133 130 122 122 130 135 138 138 134 127 119 120 126 129 129 131 133 123 101
202 233 207 253 265 256 263 265 275 280 280 262 236 14 6 78 88 70 59 29 1 36 104 110 118 97 95 120 109 170 158 145 140 134 123 117 121 110 114 91 85 104 108 119 128 134 139 140 140 137 139 140 138 136 135 137 135 134 136 138 138 139 142 149 157 159 159 161 160 163 167 169 171 170 166 153 149 151 148 141 128 126 130 134 140 143 142 135 130 124 130 138 135 134 132 125 108
203 233 220 253 278 275 274 265 275 282 275 255 237 324 66 63 69 77 75 47 352 89 111 101 117 109 143 160 177 183 151 137 127 124 116 119 128 108 120 106 86 105 122 132 136 138 140 143 144 143 145 145 142 139 137 138 135 135 138 138 139 141 149 160 164 163 162 166 167 168 173 172 171 174 175 168 169 165 159 156 141 134 130 134 143 147 152 150 146 139 143 149 146 146 133 121 93
210 223 235 260 269 276 274 268 281 281 280 289 320 346 75 55 26 59 96 96 341 2 76 106 159 141 162 170 153 136 134 134 127 126 121 122 124 107 115 117 107 122 139 142 144 148 147 148 149 148 148 147 146 143 140 139 137 138 137 137 141 148 161 169 168 168 171 176 177 176 175 173 170 171 177 179 182 177 170 173 162 157 156 150 151 160 164 160 158 159 160 158 163 170 173 225 338
253 231 242 263 260 267 265 263 270 252 276 340 7 9 43 45 27 40 58 86 319 348 61 64 47 112 157 142 123 126 129 132 130 125 116 112 112 99 100 115 125 132 142 142 140 145 151 152 151 152 150 149 150 148 146 142 141 141 138 141 149 159 171 175 173 174 179 183 181 176 170 168 171 171 177 184 188 188 182 187 187 187 189 168 165 178 180 172 167 172 173 173 187 213 263 280 296
252 212 215 239 243 249 256 256 263 267 336 335 27 26 32 43 41 36 16 57 304 41 78 72 63 70 101 112 120 125 127 128 129 124 115 114 113 103 101 123 135 134 139 140 140 145 151 153 154 155 150 151 153 152 152 145 144 144 143 151 158 167 177 179 178 181 182 184 180 171 167 163 166 175 184 188 189 197 196 197 199 199 199 197 198 196 195 188 182 185 187 195 214 242 265 273 282
232 212 202 223 232 244 256 261 272 298 344 329 25 31 33 62 46 31 359 359 349 36 90 88 89 92 98 114 123 125 127 127 129 127 122 125 125 117 114 127 136 137 136 138 148 154 154 157 159 158 152 155 158 157 156 151 150 148 151 160 162 173 185 184 184 187 185 187 183 175 174 173 178 186 189 193 197 202 203 203 206 204 202 213 226 223 221 207 214 231 221 245 250 261 267 270 267
220 219 231 241 242 254 259 266 284 307 352 7 26 15 16 45 35 66 28 4 342 1 121 112 114 124 122 125 129 129 129 127 129 129 127 133 131 126 126 133 143 147 142 141 152 156 156 163 164 161 160 163 164 163 160 158 155 152 158 166 168 179 189 189 190 192 189 192 193 187 182 182 197 202 193 201 213 210 205 202 208 213 207 212 227 236 244 246 260 273 292 300 301 297 283 269 248
209 199 222 246 252 265 268 275 302 338 21 29 19 357 355 5 351 4 85 13 304 277 153 149 144 140 135 129 129 130 128 127 130 127 127 134 131 129 133 141 150 153 150 145 150 154 157 166 169 165 167 169 168 167 162 161 159 157 163 171 176 182 187 191 196 195 193 195 197 195 189 188 205 215 205 208 220 223 216 207 208 215 210 210 223 234 246 260 280 293 304 322 333 317 286 256 235
227 218 219 234 245 257 273 282 300 22 34 13 359 333 323 343 321 278 122 196 252 257 142 143 141 139 134 128 131 132 130 131 132 131 132 136 134 133 137 142 147 151 152 143 141 151 161 164 169 168 169 170 169 169 164 163 163 162 167 174 180 185 190 195 200 200 198 202 198 194 195 195 206 220 221 216 219 226 223 213 210 211 206 207 222 239 257 269 286 291 300 319 336 326 303 296 289
222 248 230 232 243 251 273 286 289 336 12 316 297 306 318 339 305 274 146 248 168 100 114 121 123 124 116 113 123 128 135 139 137 139 138 140 140 137 142 146 148 149 149 142 135 147 173 167 167 169 167 166 167 167 165 165 165 167 173 179 185 190 194 197 202 204 205 209 202 192 192 193 202 218 228 226 218 216 216 211 206 208 200 197 201 209 227 242 244 245 253 269 295 297 295 294 294
219 241 236 237 248 259 272 280 288 328 5 324 341 347 326 314 303 321 315 312 100 102 104 111 114 113 107 106 117 120 129 135 133 140 143 147 148 143 147 150 150 149 147 147 141 149 181 177 169 171 168 165 166 167 164 165 166 168 175 182 189 192 195 199 202 202 202 206 205 196 188 185 196 210 216 215 209 201 200 195 201 211 203 199 202 200 205 218 227 231 231 234 244 253 260 261 272
229 230 231 240 257 273 281 282 286 304 339 331 320 315 292 281 292 310 301 46 104 112 109 114 118 118 120 121 126 125 125 126 125 136 144 148 146 144 149 151 150 147 146 151 146 149 176 179 171 173 170 167 166 166 163 162 163 166 171 180 188 189 193 200 204 204 203 203 205 202 192 186 185 185 185 188 195 205 204 200 211 216 206 205 206 203 207 215 222 230 231 232 236 239 243 243 257
235 230 227 234 249 272 282 277 272 282 288 251 258 259 254 269 288 285 267 115 113 119 114 116 119 120 124 126 129 126 124 125 125 136 142 143 144 146 150 152 154 151 149 152 145 148 178 182 173 174 170 169 166 164 165 160 159 162 165 175 184 185 190 200 203 205 209 207 206 205 196 187 179 181 183 181 190 203 208 215 222 218 212 212 208 209 217 216 217 226 229 227 228 237 249 255 261
273 266 271 268 257 257 267 273 263 259 260 218 209 237 246 249 238 261 247 133 123 117 113 114 114 115 115 112 116 118 117 118 119 126 128 129 134 142 150 152 157 159 155 154 146 151 180 183 175 176 171 170 167 165 169 163 160 162 166 175 180 180 187 199 205 206 213 213 209 208 203 191 181 189 189 178 188 204 213 220 221 215 214 214 212 214 222 222 219 227 229 221 223 233 242 243 244
297 299 318 299 291 278 275 288 286 280 269 210 189 227 250 242 209 232 200 127 125 118 115 116 114 117 115 111 109 107 105 106 111 111 107 106 96 69 133 156 156 161 161 156 150 154 173 178 173 175 170 168 169 167 169 166 165 165 168 177 176 179 185 196 206 208 211 213 210 208 206 199 189 197 191 175 187 205 213 218 216 213 210 209 212 212 220 229 229 232 230 220 218 223 233 240 240
282 287 311 293 289 279 270 270 272 270 267 227 189 242 265 258 227 218 165 128 125 119 118 119 118 119 114 113 109 106 108 107 102 98 107 121 124 114 310 238 166 157 159 155 154 159 167 169 168 169 165 163 162 160 161 159 163 167 167 171 173 177 181 188 198 198 200 204 207 207 207 207 203 205 196 178 181 195 204 208 213 219 215 211 215 214 220 231 234 236 232 214 203 200 225 253 245
263 268 279 284 295 269 249 232 240 236 237 219 166 243 267 259 251 220 143 129 126 121 124 123 121 117 109 107 107 110 114 111 102 108 127 130 136 144 166 252 209 158 153 156 157 160 161 161 161 161 157 152 146 144 145 145 155 163 159 155 160 162 158 160 173 176 179 182 190 204 210 214 214 213 209 196 191 198 210 214 218 224 220 215 219 218 222 232 240 238 218 200 194 198 212 232 248
285 281 264 245 258 263 240 213 224 220 227 194 150 220 250 261 263 196 135 133 129 127 131 126 124 114 107 109 113 115 112 120 123 125 135 136 140 148 147 222 241 157 137 145 149 150 149 150 151 149 145 144 145 144 145 152 158 155 146 142 144 143 138 146 159 162 164 161 163 205 222 220 218 216 213 203 201 209 219 224 226 226 221 223 222 214 223 234 244 229 204 202 205 213 212 203 248
241 243 276 230 204 258 249 216 209 211 222 155 141 230 250 268 259 163 135 133 128 130 134 129 127 118 116 123 121 126 122 123 133 137 142 140 146 148 140 214 241 142 126 135 141 142 143 144 144 142 140 141 147 141 136 144 148 144 143 140 139 137 128 136 147 148 150 147 137 143 160 186 208 215 205 192 197 211 222 232 233 231 230 239 237 228 235 241 243 220 204 207 213 213 206 194 227
238 203 246 238 218 249 253 223 190 195 194 134 153 212 247 282 232 127 120 129 133 135 140 141 135 125 127 131 128 134 132 130 142 154 153 145 153 143 134 239 234 138 128 134 138 140 140 143 145 145 144 142 146 143 134 134 133 134 139 138 139 140 129 128 135 136 137 135 125 108 97 104 109 125 172 180 191 205 228 247 247 246 247 255 255 238 226 221 234 229 209 209 216 215 210 206 215
289 241 243 258 250 233 216 230 186 183 160 141 185 206 214 278 149 124 123 133 139 138 142 145 132 124 130 130 137 141 140 151 157 168 163 149 152 138 134 244 214 138 134 139 140 141 139 142 145 147 148 146 149 148 142 137 133 131 132 132 131 127 119 121 128 131 132 127 117 105 96 95 94 97 112 103 102 125 80 274 260 262 252 254 261 246 227 221 238 244 224 217 220 218 221 227 230
309 295 273 284 281 243 179 189 204 178 149 151 193 222 232 245 192 153 140 137 138 138 137 134 124 125 134 136 145 146 143 161 163 170 169 150 146 140 149 215 184 138 139 142 142 143 141 144 145 145 147 145 144 142 138 136 135 135 135 134 129 120 114 119 121 124 128 120 107 106 103 102 101 102 111 92 74 68 62 65 41 17 291 258 260 242 234 232 237 245 239 230 223 221 226 239 246
323 318 305 301 306 290 176 155 180 152 140 166 184 221 235 225 209 189 162 143 137 135 127 123 130 131 140 145 148 153 153 165 165 172 177 154 145 145 162 192 164 140 144 145 144 145 143 145 144 145 144 140 140 139 139 139 137 139 141 138 133 123 118 119 118 117 119 114 109 107 105 112 111 102 105 98 72 62 69 74 63 53 48 21 16 7 244 227 219 232 256 248 205 214 219 224 236
350 335 329 325 327 317 11 107 109 82 104 196 241 251 258 252 242 225 175 141 133 138 137 138 147 147 153 157 156 161 162 169 165 172 176 153 146 155 172 174 152 143 148 148 149 148 145 147 146 147 146 144 144 143 145 146 145 146 144 140 137 130 122 119 117 118 119 115 112 102 92 98 105 104 98 92 87 80 78 80 75 71 63 46 44 30 6 261 202 201 265 249 195 213 223 220 230
10 351 340 328 326 322 1 72 64 54 78 286 321 341 307 311 316 312 132 124 134 146 145 147 157 159 162 159 161 167 163 162 161 171 174 156 157 168 165 155 147 147 150 151 153 150 148 150 150 151 151 150 148 146 148 149 151 153 148 144 145 140 132 126 116 115 118 113 107 99 92 81 86 116 107 95 103 96 92 97 89 87 85 73 74 63 27 35 212 195 192 220 206 219 232 221 224
12 356 352 319 304 327 344 18 51 58 69 312 341 1 322 319 339 333 112 122 138 150 150 158 162 163 165 160 165 167 154 154 157 167 173 161 160 160 151 148 151 152 152 153 155 153 153 154 155 156 155 155 154 155 157 154 156 160 155 153 150 140 134 131 118 108 107 108 106 102 103 90 86 110 113 104 108 101 104 109 97 91 101 106 99 97 90 81 92 171 170 199 189 171 201 225 220
338 316 342 294 290 333 341 328 4 46 75 33 5 355 318 324 345 323 289 130 134 150 156 164 167 166 167 164 167 165 155 157 159 162 164 154 151 150 148 149 150 153 154 153 154 157 159 161 162 160 159 162 160 159 160 156 157 156 150 148 143 133 128 125 117 112 111 115 112 101 101 100 95 105 112 107 105 100 103 110 104 92 93 109 116 104 93 83 79 92 114 146 157 153 150 119 196
301 239 213 258 283 298 290 285 343 21 12 24 39 2 318 319 330 296 296 56 126 146 149 160 173 171 165 159 163 162 154 159 160 159 160 149 146 148 151 151 151 155 156 155 157 160 164 168 168 166 165 166 158 152 152 149 146 143 138 135 132 128 126 126 123 121 119 119 116 107 103 102 102 108 110 107 105 96 91 96 101 91 87 95 103 100 91 80 74 77 86 108 136 146 142 133 148
310 261 220 231 274 290 294 291 34 44 347 294 104 49 301 302 304 275 289 21 160 163 149 167 172 157 156 152 150 145 144 155 157 160 162 149 141 142 149 153 152 156 158 159 161 162 167 172 175 174 168 165 162 157 155 151 146 144 141 137 134 133 134 135 134 130 126 123 120 120 115 106 106 113 115 117 113 98 90 90 91 88 87 92 95 96 95 85 80 80 83 97 112 123 126 127 134
286 259 251 294 308 307 308 325 17 96 255 253 138 126 273 302 314 283 276 265 230 195 151 168 147 129 145 148 141 141 146 153 152 156 157 150 146 138 145 154 155 159 163 165 166 167 170 173 179 180 170 167 167 165 164 161 154 152 151 145 142 142 142 141 140 134 131 130 126 124 120 113 110 111 115 119 117 108 99 91 92 96 90 87 91 94 94 90 89 90 92 96 99 113 125 119 118
235 237 255 326 345 336 319 330 345 206 232 287 152 140 190 286 293 281 285 287 253 179 135 153 140 134 145 150 154 159 162 159 154 155 154 155 159 149 150 156 156 161 167 170 172 173 173 173 179 183 176 172 171 170 171 169 163 158 152 147 147 148 144 139 139 136 133 133 129 124 121 117 115 112 111 113 113 114 105 91 98 106 92 78 82 89 96 99 100 99 101 101 99 106 117 112 105
224 219 218 248 15 332 322 340 327 276 310 318 301 171 175 260 268 274 293 292 231 137 122 122 121 144 156 161 162 161 155 147 144 149 150 157 165 162 159 160 160 164 169 174 178 179 175 173 178 185 182 178 175 173 173 171 165 157 151 150 150 148 143 138 138 137 135 134 130 128 126 122 121 116 110 110 112 117 113 97 95 97 88 79 81 86 92 97 101 100 99 103 103 103 103 104 100
194 160 278 6 48 297 307 310 298 343 13 273 270 240 184 271 273 276 309 280 206 146 123 70 49 125 155 157 142 134 132 136 144 153 158 164 168 166 165 167 170 173 175 176 180 182 177 174 178 187 189 184 179 175 172 168 161 155 156 157 151 146 144 142 140 139 139 139 134 132 131 126 122 119 113 111 111 114 118 108 99 96 93 89 83 84 86 87 91 92 92 97 104 106 102 99 100
132 88 356 347 327 274 261 260 265 32 315 254 248 259 244 278 282 265 294 230 167 103 85 70 67 108 142 156 146 147 151 147 145 146 146 151 157 160 165 172 179 183 185 184 186 186 179 176 181 188 192 189 182 177 172 167 161 159 163 161 153 150 149 148 144 142 142 142 139 135 134 131 128 127 125 123 122 118 116 113 108 106 105 103 96 92 91 88 90 91 92 96 101 107 105 99 98
80 79 44 3 332 328 8 336 21 102 267 262 311 340 321 244 274 258 241 181 122 108 107 103 97 106 115 119 124 124 114 105 107 113 119 126 138 154 163 171 181 187 191 191 195 198 182 177 184 189 192 190 185 179 174 169 165 164 166 162 157 155 155 155 150 149 149 146 144 141 139 138 135 135 134 132 134 129 122 121 121 121 118 115 111 103 95 92 96 97 93 90 93 104 111 107 101
102 96 75 56 339 0 15 324 335 199 252 256 321 358 348 230 244 265 273 226 130 118 122 118 110 102 91 87 89 89 87 87 91 97 106 117 129 156 171 177 182 184 189 195 203 212 200 181 187 193 192 190 186 180 176 173 169 167 168 164 160 159 160 161 156 152 154 150 149 149 147 145 142 144 145 140 140 135 129 132 133 135 136 130 125 117 102 95 95 94 94 90 88 94 107 114 108
153 163 158 142 128 70 300 273 275 271 275 277 337 28 332 287 268 299 313 284 124 104 110 117 102 87 83 86 90 90 84 81 82 84 85 86 99 123 171 194 189 176 181 197 203 208 205 191 199 212 201 189 184 180 178 178 173 171 171 166 163 164 164 164 160 157 158 155 155 157 157 155 150 151 154 149 147 140 136 146 147 140 143 142 137 130 121 117 107 97 100 99 93 92 99 112 117
219 192 155 147 151 149 192 210 171 227 269 306 9 61 254 272 267 286 316 70 89 86 96 98 83 80 84 87 88 88 82 80 80 78 82 71 69 67 52 175 185 177 183 195 199 203 205 196 208 253 213 175 176 181 182 181 177 174 174 169 166 168 166 164 163 163 162 160 161 164 164 164 159 157 160 157 156 151 148 160 164 149 143 143 143 137 130 130 127 113 107 105 102 98 94 101 117
266 317 85 164 184 154 159 187 182 188 242 311 325 195 226 206 247 278 302 78 81 89 94 80 74 83 90 89 88 93 92 90 90 85 90 76 68 64 47 68 155 174 182 185 185 195 201 193 190 174 153 164 172 182 185 183 182 179 175 170 168 170 168 165 165 168 169 166 165 170 172 172 167 162 165 164 162 163 165 173 176 167 158 148 143 143 139 137 142 131 117 115 109 101 93 91 106
284 332 264 219 182 130 126 242 214 152 75 274 230 214 296 339 271 278 271 110 104 108 93 80 82 85 90 90 88 96 95 92 92 85 85 67 59 65 56 63 108 154 171 175 184 197 197 194 188 145 149 171 174 178 182 179 182 185 180 172 170 172 169 166 167 170 174 173 170 172 175 175 173 170 172 172 170 172 178 184 182 175 172 163 148 149 155 162 169 167 146 134 121 115 117 99 97
87 282 264 289 33 92 112 121 322 83 144 257 223 181 258 358 280 290 295 151 134 123 101 91 92 88 87 89 87 90 88 85 84 74 72 66 59 63 61 61 71 97 135 164 183 195 197 205 202 172 153 174 178 173 172 170 176 185 183 175 171 173 170 166 170 172 174 177 176 175 173 173 177 178 179 179 177 179 183 188 189 184 184 184 170 165 178 187 183 181 174 156 151 151 153 138 118
140 235 265 352 67 42 357 125 167 197 189 277 274 184 130 186 254 297 325 7 72 92 100 99 97 94 93 90 87 86 81 76 76 70 65 66 69 69 65 62 65 69 78 98 126 153 159 177 187 176 165 176 179 167 164 165 166 177 183 181 176 180 180 173 174 177 177 175 175 176 176 175 178 182 185 185 185 185 188 191 193 196 197 198 195 187 193 205 198 193 194 180 179 184 169 157 159
274 255 281 245 149 159 213 171 163 165 181 246 302 347 334 217 238 293 6 64 44 31 72 100 103 99 96 94 87 85 86 80 74 71 67 72 80 83 78 70 68 67 65 65 67 80 115 135 153 161 165 170 169 166 168 169 165 167 177 181 179 182 186 184 182 184 183 180 177 175 178 181 183 187 190 193 195 194 195 196 197 204 209 210 212 203 202 213 214 209 207 199 199 200 183 178 184
348 351 333 295 25 63 50 348 36 119 161 194 94 347 283 246 277 326 36 101 78 44 40 84 103 98 91 93 92 89 90 87 86 87 86 87 89 92 93 86 79 74 69 65 65 70 89 115 130 144 156 161 158 163 172 173 169 169 172 179 183 180 182 185 182 178 180 182 182 180 183 190 193 198 201 202 205 206 206 205 204 209 215 218 223 219 213 216 219 220 215 213 215 210 197 199 202
126 312 209 138 102 77 64 354 342 45 113 164 140 193 264 261 294 330 10 116 112 102 84 79 98 100 97 98 99 103 106 102 105 105 91 82 92 100 100 90 84 81 78 75 72 73 78 88 110 132 145 150 150 155 170 175 174 175 168 163 169 168 171 179 171 162 169 174 177 180 184 190 194 201 207 210 214 215 214 213 212 214 218 221 227 229 223 219 220 223 221 219 223 216 206 207 209
Height
761 763 763 765 764 766 767 768 782 780 780 792 783 776 760 738 738 737 735 728 727 724 712 711 710 713 725 739 745 746 749 752 756 762 773 765 754 757 756 758 761 762 764 765 765 765 768 772 774 776 778 779 781 783 785 787 788 790 792 794 795 797 799 800 802 803 804 805 807 807 808 809 810 811 812 813 814 815 816 817 818 820 820 821 822 822 823 824 824 825 825 826 826 826 826 826 826
761 763 762 765 764 768 769 767 786 786 786 797 781 768 750 735 740 742 739 732 730 721 710 711 713 720 726 732 735 741 751 749 746 751 757 755 756 759 756 759 759 761 764 765 765 766 769 772 774 776 778 780 782 783 785 787 789 791 793 795 796 798 800 801 803 804 805 806 807 808 809 810 811 812 813 814 815 816 817 818 819 820 821 822 823 823 824 825 825 826 826 826 826 826 826 826 826
761 762 762 765 764 767 769 770 787 789 791 797 777 755 743 743 743 740 734 727 721 712 711 713 719 725 728 736 738 747 757 750 745 749 754 755 756 760 759 758 758 761 763 765 766 766 769 771 774 776 778 780 782 784 786 788 790 792 794 796 797 799 801 802 804 805 806 807 808 809 810 811 812 813 814 815 816 817 817 818 819 821 822 823 824 824 825 825 826 826 826 826 827 827 827 827 827
761 762 762 764 767 769 772 776 782 786 793 789 770 748 740 743 737 733 727 720 715 711 715 719 730 729 729 745 744 748 755 749 747 748 754 755 754 758 758 758 759 761 763 766 765 766 769 771 774 776 779 781 782 785 786 789 791 794 795 797 798 800 802 803 805 806 807 808 809 810 811 812 813 814 815 816 817 817 818 819 820 821 822 823 824 825 825 826 826 827 827 827 827 827 828 828 828
761 762 762 764 771 771 772 777 774 781 787 778 765 747 739 737 731 728 720 716 713 713 716 722 737 733 730 743 743 752 755 749 747 745 751 755 754 756 757 758 759 761 764 765 765 766 768 771 774 776 778 780 783 785 787 790 792 795 796 797 799 801 803 804 806 807 808 809 810 811 812 813 814 815 816 817 818 818 819 820 820 821 822 823 824 825 825 826 827 827 827 827 828 828 828 828 828
760 761 761 763 767 765 773 782 778 779 771 762 759 745 738 734 728 726 719 716 713 713 715 722 735 737 742 744 741 749 749 747 748 746 750 755 757 756 757 759 759 761 764 764 765 766 768 771 774 776 778 780 783 785 788 790 793 795 797 798 800 802 804 805 807 808 809 810 811 812 812 813 814 815 816 817 818 819 820 820 821 822 823 824 824 825 826 827 827 827 828 828 828 828 829 829 829
761 763 762 766 767 764 779 786 781 778 761 750 749 741 736 731 724 723 723 722 719 716 716 726 729 738 751 746 746 747 743 745 746 748 751 755 758 758 759 760 760 762 763 764 765 766 769 771 774 776 778 781 783 786 789 791 794 796 798 799 801 803 805 807 808 809 810 811 811 812 813 814 815 816 817 818 819 820 820 821 822 822 823 824 825 826 826 827 827 828 828 828 829 829 830 830 830
762 765 763 769 774 771 780 782 776 772 757 743 737 735 732 724 720 721 724 725 726 722 721 727 723 741 754 743 753 752 743 747 747 752 754 757 760 759 760 761 762 763 764 765 766 767 769 772 774 777 778 781 784 787 790 792 795 796 799 800 803 805 806 808 809 810 811 812 812 813 814 815 816 817 818 819 820 820 821 822 822 823 823 824 825 826 827 827 828 828 829 829 830 830 830 830 831
762 766 764 770 778 776 779 778 772 764 752 741 732 729 726 721 719 720 723 724 724 723 724 726 720 742 755 747 756 751 747 751 749 754 756 759 763 763 763 763 765 765 766 766 767 768 770 774 775 777 779 782 785 788 790 793 795 797 800 802 804 806 807 809 810 811 812 813 813 814 815 815 816 817 818 819 820 821 821 822 823 824 824 825 826 827 828 828 829 829 830 830 830 831 831 831 831
762 764 765 771 777 782 783 777 768 758 747 738 730 723 721 718 718 720 723 724 722 722 725 723 725 741 751 752 756 752 752 752 750 755 755 758 764 768 768 767 768 766 767 768 770 771 772 775 776 779 781 783 786 788 791 793 796 798 801 803 806 807 809 810 811 812 813 814 814 815 816 816 817 818 819 819 820 821 822 823 824 824 825 826 827 828 828 829 829 830 831 831 831 832 832 832 832
766 762 763 774 781 786 784 776 765 754 743 734 728 718 715 714 716 720 722 724 720 722 724 725 736 743 747 754 757 754 752 752 752 755 757 757 761 767 769 771 770 768 770 771 773 774 775 778 779 781 783 785 787 789 792 794 797 799 802 804 807 809 810 811 812 813 813 814 815 816 817 817 818 818 819 820 821 822 823 824 824 825 826 827 828 829 829 829 830 830 831 831 832 832 833 833 833
770 765 765 778 783 781 776 772 763 752 743 737 732 718 711 712 718 723 723 726 722 723 723 725 736 739 749 758 757 754 750 751 753 755 759 760 761 764 768 773 774 773 773 775 777 778 780 781 782 784 786 788 789 792 794 796 798 800 803 806 808 809 810 812 812 813 813 814 815 816 817 818 819 819 820 820 821 822 823 824 825 826 826 827 829 829 830 830 831 831 832 832 832 833 833 834 833
768 766 770 778 774 772 770 767 760 752 747 739 731 718 711 715 721 723 723 726 723 727 726 723 730 735 753 761 755 755 752 752 753 757 760 762 766 768 770 777 782 782 782 782 781 782 783 784 785 787 789 790 792 794 795 797 799 802 804 806 808 810 810 811 812 812 813 814 815 816 817 818 819 820 821 821 822 823 823 825 826 827 827 828 829 830 831 831 831 832 832 832 833 833 834 834 834
762 761 768 775 768 767 766 765 758 755 751 735 725 716 712 718 721 719 721 729 728 729 728 722 726 738 755 760 759 757 753 755 757 760 761 763 769 772 775 783 787 788 790 791 789 788 786 787 789 790 792 793 794 795 798 799 800 803 805 807 808 810 810 811 811 812 813 814 815 816 818 819 820 821 821 822 823 823 824 825 826 827 828 829 830 830 831 832 832 832 833 833 833 834 834 835 835
756 757 763 771 769 767 764 761 757 755 750 733 723 715 715 716 714 718 721 730 730 722 723 723 725 739 753 756 758 755 753 758 759 761 762 764 768 771 774 780 785 787 791 793 794 793 789 790 791 792 794 794 796 797 799 801 802 804 805 807 808 809 810 810 811 812 814 815 816 816 818 819 820 821 822 823 823 824 825 825 826 827 828 829 830 830 831 832 832 833 833 834 834 835 835 835 836
750 754 763 771 772 772 764 757 754 755 747 731 723 717 721 719 712 720 719 722 727 718 722 727 725 733 743 744 745 749 753 757 758 760 761 764 769 772 772 774 781 784 788 789 793 795 792 792 792 793 795 796 798 799 801 802 804 805 806 807 808 809 809 809 811 812 813 814 815 816 818 819 820 822 822 823 823 824 825 826 826 827 828 829 830 830 831 832 832 833 833 834 835 835 835 835 836
748 755 767 774 774 773 763 755 753 751 743 732 726 722 728 726 716 718 715 716 726 724 726 730 726 728 733 734 737 745 752 755 756 759 761 765 770 774 774 774 776 780 784 786 790 795 795 795 795 795 796 797 799 800 802 804 805 806 807 807 807 808 807 808 810 811 812 813 815 816 818 820 821 822 823 823 824 824 825 825 826 827 827 828 829 830 831 831 832 833 834 834 835 835 835 836 836
753 761 769 775 772 767 756 750 744 740 740 734 728 725 728 729 723 720 719 724 726 728 733 732 731 731 732 734 737 744 750 753 756 758 761 766 770 773 775 776 775 776 781 784 789 796 799 798 797 797 797 798 799 801 803 804 806 806 806 806 807 807 806 808 809 810 811 812 814 815 818 820 821 823 823 823 824 824 824 825 825 826 827 828 829 830 831 832 832 833 834 835 835 835 835 836 836
755 760 767 769 763 756 746 742 738 735 738 733 727 725 727 729 725 722 728 734 730 735 742 738 739 740 737 738 741 745 748 752 755 757 761 764 768 771 774 777 777 777 779 782 787 793 798 799 798 797 796 797 798 800 803 804 805 805 805 805 806 806 806 808 809 810 811 811 813 814 816 819 820 821 823 823 823 823 823 825 826 826 827 828 829 830 831 832 833 833 834 835 835 835 835 836 836
753 757 766 762 753 748 740 737 736 733 731 732 732 728 728 727 723 724 732 737 734 739 746 744 747 746 743 743 743 745 747 750 753 757 761 764 767 770 773 776 778 780 779 780 785 791 795 797 797 796 796 796 798 800 802 804 805 805 804 804 805 805 806 808 809 810 810 811 812 813 815 817 819 820 822 823 823 823 823 825 826 826 827 828 829 831 832 833 833 834 834 835 835 835 835 835 836
750 753 761 754 747 748 740 735 736 732 729 732 734 731 731 727 723 726 731 739 740 737 738 740 745 746 744 746 746 746 748 751 753 756 761 765 767 769 772 775 777 780 781 781 784 789 794 795 795 795 795 796 798 799 801 803 804 804 804 804 805 805 806 808 809 810 810 811 812 813 814 816 818 819 821 823 823 823 824 824 825 826 827 828 830 831 832 833 833 834 834 834 834 834 834 835 835
749 749 750 746 745 747 738 732 733 730 729 731 734 735 732 727 726 728 731 740 741 733 731 733 739 742 743 746 749 749 749 753 754 756 760 764 766 769 772 774 777 779 782 784 783 788 795 795 795 795 796 797 798 800 801 802 803 804 804 804 805 806 807 808 809 810 810 811 812 813 814 815 817 818 820 822 823 823 823 823 824 825 827 829 831 832 833 833 833 833 833 833 833 833 834 834 835
749 748 743 742 741 742 736 730 730 728 729 732 733 731 728 730 732 728 728 734 732 728 727 731 737 740 743 746 750 752 752 754 755 756 759 763 766 768 772 774 777 779 782 785 784 790 798 797 796 797 797 798 799 800 801 802 803 804 804 804 806 807 807 808 809 809 810 811 812 814 815 815 817 818 820 821 822 823 823 823 824 825 826 828 830 830 831 831 832 832 831 831 831 832 832 832 833
747 748 741 739 736 736 733 729 729 727 729 730 727 727 728 734 735 728 727 729 728 728 727 731 737 739 744 748 752 755 756 756 757 758 758 761 764 767 771 773 777 780 783 787 786 790 800 800 798 798 798 799 799 800 801 801 803 804 804 805 806 807 807 808 809 809 810 810 812 814 815 816 817 818 820 821 822 822 822 823 823 824 824 826 827 827 827 828 829 829 830 830 830 830 829 830 831
743 744 739 735 734 732 730 729 728 727 727 726 727 731 732 731 731 730 730 730 730 730 730 732 737 741 746 750 753 756 757 759 760 760 761 762 764 767 771 773 776 780 782 785 784 788 798 800 798 798 799 799 800 800 801 801 802 803 804 805 805 806 807 808 808 808 809 810 812 813 815 816 817 819 820 821 821 821 822 822 822 822 823 825 826 826 826 826 827 828 829 830 830 829 828 829 830
738 736 735 733 734 731 729 730 728 727 726 726 731 735 733 728 730 733 729 732 733 730 732 735 738 745 748 751 753 755 757 760 762 763 764 765 766 768 771 773 776 779 781 782 778 783 795 798 798 798 798 799 800 800 800 801 802 803 804 804 805 806 806 807 808 808 809 810 811 813 815 816 817 819 820 821 821 821 821 821 821 822 823 824 825 825 824 825 827 827 828 829 829 828 828 829 830
731 731 732 732 733 730 730 731 728 727 726 727 733 737 733 726 733 739 730 729 732 732 736 737 741 747 750 753 754 756 758 760 763 764 766 768 770 772 773 773 776 778 780 780 775 780 793 796 796 796 798 799 799 799 800 801 802 802 803 804 805 806 806 806 807 807 808 809 811 813 815 816 818 818 819 820 820 820 820 820 821 822 823 824 824 824 824 825 826 826 827 827 828 827 828 828 829
730 731 734 733 733 731 730 731 729 729 729 726 728 734 732 728 734 736 729 728 730 733 739 740 744 748 750 754 756 758 760 762 764 765 767 770 771 776 779 777 776 778 779 779 776 780 790 793 794 796 797 798 798 798 799 800 801 802 803 803 804 805 806 806 807 807 808 809 811 813 814 816 817 818 819 820 819 819 819 820 820 821 822 822 823 824 824 824 825 826 827 827 828 827 827 828 828
732 731 739 738 735 736 732 731 730 730 731 723 726 739 739 734 733 728 725 728 728 733 739 742 745 749 752 755 757 760 762 763 764 766 767 768 769 774 783 784 779 777 777 778 778 781 787 790 793 795 796 797 797 798 798 800 801 802 803 803 804 805 806 807 807 808 808 809 810 812 814 815 816 817 818 819 819 818 818 819 819 819 820 821 822 822 822 823 824 825 827 827 828 827 827 828 827
734 734 740 743 745 743 732 730 729 729 729 719 729 751 748 735 728 722 722 726 729 735 740 743 746 749 753 756 757 760 761 763 764 766 767 768 769 772 781 787 783 778 776 777 779 783 786 789 791 793 795 796 796 797 798 799 801 802 803 804 804 805 806 807 807 808 809 810 811 812 813 815 816 817 818 818 818 818 818 818 818 818 819 820 820 820 821 822 823 825 826 826 827 827 828 828 827
737 740 742 746 756 748 729 727 728 729 726 717 730 754 749 734 726 721 721 723 728 737 741 744 747 750 754 757 758 760 760 762 764 765 767 769 771 771 777 787 787 780 776 777 780 783 786 788 791 792 793 794 795 797 798 799 801 802 803 804 805 805 806 807 807 808 810 810 811 812 813 814 815 816 817 817 817 817 818 818 818 818 819 819 819 820 820 821 822 823 825 826 827 827 828 828 827
740 750 753 750 754 747 729 723 723 727 724 717 732 750 745 733 726 720 719 722 727 736 742 744 747 750 754 757 758 761 761 762 763 764 766 768 772 771 774 786 791 781 775 778 781 783 786 788 790 792 793 794 795 797 798 799 800 802 804 804 805 806 806 807 808 809 810 811 812 812 813 814 815 815 816 816 817 817 818 818 818 818 818 818 818 819 820 821 821 822 824 825 826 826 827 827 827
743 750 758 752 750 746 733 721 716 720 723 722 730 742 742 733 725 718 717 724 729 736 742 743 746 749 752 755 757 760 762 763 764 765 765 767 771 770 772 787 791 781 777 780 782 784 786 788 790 792 793 794 796 798 798 799 801 802 804 804 805 806 806 807 808 809 810 811 812 813 813 814 815 815 815 816 817 817 817 817 817 817 816 816 816 817 818 819 821 822 823 824 825 826 826 826 826
753 750 752 748 744 742 737 728 717 715 723 727 729 734 738 732 725 719 718 724 730 736 741 742 745 749 751 754 756 758 761 763 764 764 765 766 768 768 774 789 790 781 780 782 783 785 786 788 790 791 793 794 796 797 798 800 801 802 804 805 805 806 807 807 808 810 811 812 812 813 814 814 815 815 815 816 816 817 816 816 816 815 815 815 816 816 817 819 820 821 822 823 824 825 826 826 826
758 754 752 748 742 738 736 731 720 716 723 729 733 736 736 731 725 721 719 723 729 736 741 744 747 750 753 754 756 758 759 761 761 762 764 763 762 764 773 788 788 781 783 785 785 786 786 789 790 792 793 794 796 798 799 800 801 803 804 805 806 806 807 808 809 810 811 812 813 813 814 814 815 815 816 816 816 816 816 816 815 815 815 816 817 817 818 819 819 821 821 822 823 824 825 826 826
751 750 749 750 746 737 728 724 717 716 724 728 733 737 734 732 728 721 720 722 728 735 740 745 749 751 753 755 756 757 759 760 759 761 765 762 759 762 771 783 784 781 784 786 787 787 787 789 790 792 794 795 797 798 799 800 801 803 804 805 806 807 807 808 809 810 811 812 813 813 814 814 815 815 816 816 816 816 816 816 816 815 815 815 817 818 819 819 820 821 821 822 823 824 824 824 824
745 746 747 747 748 739 725 723 719 715 726 733 733 734 732 732 730 723 722 724 729 735 739 744 747 750 752 753 754 755 757 758 758 761 764 762 761 765 772 779 779 781 785 787 788 788 788 789 790 792 794 795 796 797 799 800 801 802 803 805 806 807 807 808 809 810 811 812 813 813 814 815 815 815 816 816 816 816 816 816 816 816 816 816 816 817 817 818 819 820 821 821 822 823 822 823 823
744 746 749 748 749 742 728 726 722 716 728 735 732 734 735 733 732 727 723 726 731 734 737 743 745 747 749 750 752 753 755 757 758 761 762 762 764 768 773 776 778 781 784 787 788 789 788 789 790 792 794 795 796 797 798 799 800 802 803 804 805 806 807 808 810 811 811 812 813 814 814 815 815 815 816 817 817 817 817 818 818 818 817 817 817 817 817 817 818 820 820 821 822 822 822 822 823
745 747 751 753 748 742 735 730 725 722 731 737 734 737 739 734 729 727 723 724 729 732 734 738 741 745 749 749 750 751 754 757 758 760 760 761 764 768 772 774 777 781 783 786 788 789 790 790 791 792 794 795 796 797 797 799 800 801 802 803 805 806 807 809 810 811 812 812 813 814 815 816 816 816 817 818 818 818 818 819 819 819 819 819 819 820 819 819 820 820 821 821 822 822 822 822 822
746 748 753 755 746 746 749 739 731 728 733 738 737 739 740 734 730 728 724 721 724 728 730 733 736 740 743 745 746 748 752 755 757 758 759 761 764 767 770 773 776 779 782 784 786 789 791 791 792 793 794 795 795 796 797 798 799 801 802 804 805 806 808 809 810 811 812 813 814 815 815 816 816 816 817 818 818 819 819 820 820 820 821 821 821 821 821 822 822 821 822 822 822 822 822 822 823
748 747 751 752 744 745 749 742 735 734 735 734 738 749 746 736 736 734 725 722 724 724 726 731 733 735 738 741 744 746 749 752 755 757 759 760 764 766 769 772 774 776 780 783 785 788 790 792 793 793 793 794 795 795 796 797 798 800 802 804 805 807 808 810 811 812 813 814 815 815 816 816 817 817 818 818 818 819 820 820 821 821 821 822 822 822 823 823 823 823 823 823 823 823 822 823 823
751 745 745 746 743 742 743 741 742 749 752 739 741 766 764 740 738 739 728 726 727 724 724 727 730 734 738 742 745 747 749 751 753 756 758 760 764 766 769 770 772 775 778 782 785 787 789 792 793 793 793 793 794 794 795 796 797 799 801 802 804 806 808 809 810 811 813 814 815 815 816 817 817 818 818 818 819 820 821 821 821 822 822 822 822 823 823 823 823 823 823 823 823 823 823 823 823
757 746 738 739 740 742 742 741 747 759 761 742 739 766 773 751 742 738 731 731 731 727 726 726 727 733 739 743 745 747 749 751 753 755 757 760 763 766 768 769 770 774 777 780 784 785 786 789 792 793 792 792 792 793 794 796 797 798 800 801 803 805 806 808 810 811 812 813 815 815 816 817 818 818 819 819 820 821 821 821 822 822 822 822 823 823 823 823 824 823 823 823 823 823 823 823 823
755 741 735 738 738 743 744 742 749 753 750 745 741 752 768 765 749 735 732 735 735 731 729 727 727 733 739 742 743 744 745 748 751 754 757 759 762 764 766 768 770 773 775 778 781 782 783 785 789 791 791 791 791 792 793 795 796 798 799 801 803 805 806 808 810 811 812 813 815 816 817 818 818 819 819 820 821 821 822 822 822 823 823 823 823 823 823 824 824 824 824 824 824 824 824 824 824
745 734 733 736 737 741 743 745 750 748 751 761 751 746 767 772 750 735 735 738 739 735 732 729 728 733 737 738 740 742 743 746 749 753 757 758 761 763 765 767 770 772 773 775 778 780 779 780 785 789 790 790 789 790 792 794 796 798 799 801 803 805 806 808 809 811 812 814 815 816 817 818 819 820 820 821 821 822 823 824 824 823 824 824 824 824 824 825 825 825 825 825 825 825 825 825 825
735 730 733 735 737 739 742 749 751 750 762 773 758 749 768 773 752 741 742 741 740 736 732 731 730 734 738 738 741 744 745 747 749 751 754 756 759 762 765 767 769 771 772 774 776 778 777 777 782 786 788 788 788 789 791 793 796 797 799 800 801 804 806 808 809 811 813 814 815 816 817 818 819 820 821 822 822 823 824 824 824 825 825 825 826 826 826 826 826 826 826 826 826 826 826 826 826
729 730 736 740 742 741 744 748 750 762 775 771 757 750 763 773 760 746 744 742 737 736 737 737 735 738 742 741 743 744 745 746 748 751 753 756 760 762 765 767 769 770 771 773 775 777 775 774 779 784 787 788 788 789 791 793 795 797 799 800 801 803 805 807 809 810 812 813 814 816 817 819 820 821 822 822 823 824 824 825 825 826 826 827 827 827 828 828 828 828 828 827 827 827 827 827 827
729 735 742 752 755 752 755 755 756 777 784 768 756 752 761 776 766 746 740 737 734 736 740 740 739 741 743 743 744 745 746 748 750 753 756 758 762 764 766 767 768 770 771 772 775 777 775 774 778 782 785 788 788 789 791 793 796 798 799 800 801 802 804 806 808 810 811 813 814 816 817 818 820 821 822 822 823 824 824 825 826 826 827 828 828 828 829 829 829 829 829 829 829 828 829 829 829
733 739 748 764 773 773 778 775 773 784 781 764 758 759 765 769 758 745 739 734 732 734 737 739 739 740 742 745 748 749 751 752 753 756 758 760 762 764 766 767 768 770 772 773 774 776 775 775 778 782 785 787 789 791 793 795 796 798 799 800 801 802 804 806 808 809 811 812 814 815 816 818 819 820 821 822 823 824 824 825 826 826 827 828 829 829 829 830 830 830 830 830 830 830 830 830 830
740 744 752 769 780 789 796 789 785 787 777 762 756 763 773 768 753 745 739 734 732 732 735 737 737 739 743 746 749 751 752 755 756 758 759 761 762 764 766 766 768 770 771 771 771 773 775 774 778 785 789 791 793 795 796 797 798 799 799 800 801 802 803 806 808 810 811 813 814 815 816 817 818 819 820 821 822 824 824 825 826 827 827 828 829 830 830 830 830 831 831 831 831 831 830 830 830
738 734 741 758 765 779 791 788 788 789 779 767 762 770 780 773 757 745 738 734 733 734 735 735 737 741 745 747 749 752 755 757 758 759 761 762 763 764 765 765 766 768 769 770 771 773 774 774 780 791 797 798 799 799 798 798 798 798 799 799 801 802 803 805 808 810 812 813 814 815 815 816 817 818 819 821 822 823 824 825 826 827 828 829 830 830 831 831 831 831 831 831 832 832 831 831 831
738 729 739 753 750 757 772 774 775 777 778 774 769 770 770 762 753 744 739 737 735 736 737 737 742 746 746 750 753 755 758 759 760 761 762 763 763 764 765 765 765 768 769 770 772 773 773 775 783 795 800 800 799 798 797 797 797 798 799 799 801 802 803 804 807 810 812 813 814 815 816 816 817 818 819 821 822 823 824 825 827 828 829 829 830 831 831 831 831 831 832 832 832 832 832 832 832
741 738 744 743 735 742 763 771 766 769 782 779 767 767 764 758 755 745 739 741 740 739 740 744 750 750 750 755 757 758 760 761 762 762 762 764 764 765 766 766 767 769 771 772 773 774 776 779 787 796 800 799 797 795 795 796 797 798 798 799 800 802 803 803 806 809 811 813 814 815 816 817 817 818 819 820 821 823 824 826 827 828 829 830 831 831 831 831 831 831 831 832 832 832 833 833 833
741 748 742 734 734 740 754 771 774 777 788 779 765 769 773 770 766 751 743 745 744 741 745 750 753 754 756 759 760 761 761 762 763 763 764 766 766 768 768 769 770 771 773 774 775 778 780 783 788 795 798 797 795 793 793 794 795 797 798 799 800 802 803 804 805 807 810 812 814 815 816 817 817 818 818 820 821 822 823 825 827 828 829 830 831 831 832 832 832 832 832 832 832 833 833 833 833
732 739 733 737 754 757 756 769 779 784 790 782 769 770 775 777 773 760 753 753 751 748 749 753 755 756 759 761 762 763 764 766 766 766 767 768 769 770 770 770 771 771 773 774 776 778 780 782 785 789 791 792 790 790 791 792 794 796 798 799 800 802 804 804 805 806 808 810 812 814 816 816 817 817 818 819 820 821 823 824 826 827 828 829 830 831 832 832 832 833 833 833 833 833 833 833 834
726 732 731 736 751 759 759 762 768 777 786 785 778 775 776 776 770 762 759 760 760 758 755 755 757 758 760 762 764 766 768 769 769 770 771 771 772 772 772 772 772 772 773 774 775 775 776 778 780 781 783 784 785 787 789 791 793 795 797 799 800 802 803 804 804 805 807 809 811 813 814 816 816 817 817 818 819 820 822 823 824 826 827 828 829 830 831 832 832 832 833 833 833 833 834 833 834
736 742 745 745 747 754 759 760 763 771 779 783 785 786 780 768 760 759 759 760 761 762 762 760 759 759 761 763 766 768 770 771 772 773 773 773 773 774 774 774 774 774 774 775 775 776 776 777 778 779 780 782 783 785 787 789 792 794 796 798 800 802 803 804 804 805 806 807 809 811 813 814 815 816 816 817 818 819 820 821 823 824 825 826 828 829 830 830 831 832 832 832 833 833 833 833 833
738 743 746 748 751 759 769 774 773 773 777 780 786 791 781 763 756 756 755 756 757 759 764 764 761 762 764 765 768 769 770 772 773 774 775 774 774 775 775 775 775 776 776 776 777 777 778 779 779 781 782 783 785 787 788 790 792 794 795 796 799 801 802 803 804 805 805 807 808 810 811 812 813 814 814 815 816 817 819 820 821 822 823 824 825 826 828 829 830 831 831 832 832 832 832 832 832